星链-33656 (STARLINK-33656)

导读

STARLINK-33656是美国SpaceX公司于2025年3月26日发射的星链低轨通信卫星,属于星链全球宽带互联网星座的组成部分。星链星座旨在为全球尤其是偏远地区提供高速稳定的互联网服务,这款卫星采用平板设计,搭载氪基霍尔推进器,具备自主避撞能力,寿命末期会主动离轨再入大气层烧毁,单星设计寿命约5至7年,服务全球泛在互联。

Basic Information
目录编号:
63389
目录名称:
STARLINK-33656
国际标识:
2025-063AC
轨道中心:
EARTH
卫星名称:
星链-33656
卫星全名:
星链-33656 (STARLINK-33656)
卫星状态:
在轨 (已飞行528 天)
发射日期:
2025-03-26 UTC
国别 :
美国 (US)
星等 :
--
Orbit Information
数据来源 国际轨道数据
星历时间: 2026-09-05T01:58:53+0800
14小时前
查看轨道信息
半长轴: 6848.884km
偏心率: 0.000148
轨道倾角: 53.159°
近地点辐角 57.059°
升交点赤经 299.376°
平近点角 303.056°
近地点: 469.733km
远地点: 471.761km
周期: 94.013分钟
每日圈数: 15.316979
Detailed Information
固有亮度:
5
最大亮度:
2.5
卫星平台:
Starlink V1.0
覆盖范围:
全球
运营商:
太空探索技术公司
运营商所在国:
美国
制造商(研发单位):
太空探索技术公司
制造商所在国:
美国
使用方式:
暂无
Satellite Introduction
Starlink 计划是 SpaceX 推出的全球卫星互联网项目,通过发射低轨道卫星,为全球尤其是偏远地区提供高速、低延迟的互联网服务。自 2019 年起,Starlink 已部署数千颗卫星,旨在缩小全球数字鸿沟,推动互联网普及。该项目还为军事、航空等行业提供通信支持,带来广泛经济效益。
2D Orbit Map
3D Orbit Map
Orbit Altitude Analysis Chart
Orbit Inclination Analysis Chart
Orbit Comprehensive Analysis Chart
View Comprehensive Chart
Conjunction Data List
Event ID Objects TCA Miss Dist (km) Collision Risk Probability Collision Risk Index (CRI) Action
CDM_260906-200606-338906-942521
2026-09-06T
20:06:26+0000
2.468 km
极远距离
1.793959E-6 低风险 0.4
CDM_260902-085304-464106-338921
2026-09-02T
08:53:06+0000
1.930 km
极远距离
1.764342E-6 低风险 0.4
CDM_260905-062006-338906-969021
2026-09-05T
06:20:18+0000
2.637 km
极远距离
1.585127E-6 低风险 0.39
CDM_260907-210106-338906-974021
2026-09-07T
21:01:34+0000
2.891 km
极远距离
1.394425E-6 低风险 0.38
CDM_260905-190400-635006-338921
2026-09-05T
19:04:37+0000
2.795 km
极远距离
1.297795E-6 低风险 0.37